"Pseudo-MPEC" for SWAN

Created 2018 Dec 9 15:18:08 UT using Find_Orb

Click here for an explanation of pseudo-MPECs

 
 Astrometry: 
     SWAN      2018 11 19BEy%=mw/Astrometry8gOKJCD,)f?SX^+8Er..=PSZ)2Qv/`iwi:500
     SWAN      2018 11 20M[n+tSCsK+redacted;(i[5#dHT;1n*.]xcI7J?,w!\O.YHYd*y@500
     SWAN      2018 11 21[=p;YB,^a85mrkclick!+:4JD7#pA:^TH?q8gwZs5AfK^YwOZ\in500
     SWAN      2018 11 22+Gn`o31gKx+LT'8%eqheren+^8SE9/fI:3=\PfIVdh;6vB(!ayW0500
     SWAN      2018 11 23Q#nT\qrr!^v1IM9:oB;1uLAZuirjK#msW1/(*(]h$okvforB_6k'500
     SWAN      2018 11 24R@.Bkej?v!N$_Vb(41M0S2xm+UJR`osIk45]explanation1k2iP500

Station data:
(500) Geocentric.

Orbital elements:  SWAN
   Perigee 2018 Dec 7.997643 TT = 23:56:36 (JD 2458460.497643)
Epoch 2018 Nov 24.0 TT = JDT 2458446.5                        AutoNEOCP
M 204.19895698                      (J2000 equator)
n  11.13051962     Peri.  149.72999
a428805.038km      Node   346.05613
e   0.8535850      Incl.  125.13982
P  32.34d          H   20.6     G   0.15   q 62783.4609km  Q 794826.616km
From 6 observations 2018 Nov. 19-24; mean residual 504".06
Residuals in arcseconds: 
181119 500  8.9-  359-    181121 500 38.7-  345+    181123 500  620-  584+    
181120 500 76.7+  105+    181122 500  291-  559+    181124 500  718+ 1070-    

Ephemerides (geocentric):
Date (UTC) HH   RA              Dec         delta   r     elong  mag
---- -- -- --  -------------   -----------  ------ ------ -----  ---
2018 12 09 15  03 59 23.033   -55 09 06.02  256157 .98524 100.8  9.5
2018 12 09 16  03 54 51.459   -54 59 23.24  260507 .98524 100.8  9.5
2018 12 09 17  03 50 30.917   -54 49 23.67  264815 .98523 100.7  9.6
2018 12 09 18  03 46 20.787   -54 39 10.09  269081 .98523 100.7  9.6
2018 12 09 19  03 42 20.487   -54 28 44.97  273307 .98523 100.7  9.7
2018 12 09 20  03 38 29.469   -54 18 10.43  277493 .98523 100.6  9.7
2018 12 09 21  03 34 47.223   -54 07 28.38  281640 .98523 100.6  9.7
2018 12 09 22  03 31 13.270   -53 56 40.45  285749 .98523 100.5  9.8
2018 12 09 23  03 27 47.163   -53 45 48.11  289820 .98523 100.5  9.8
2018 12 10 00  03 24 28.481   -53 34 52.61  293854 .98522 100.5  9.8
2018 12 10 01  03 21 16.831   -53 23 55.08  297852 .98522 100.4  9.9
2018 12 10 02  03 18 11.846   -53 12 56.49  301814 .98522 100.4  9.9
2018 12 10 03  03 15 13.181   -53 01 57.70  305741 .98522 100.3  9.9
2018 12 10 04  03 12 20.514   -52 50 59.46  309634 .98522 100.3  9.9
2018 12 10 05  03 09 33.542   -52 40 02.42  313493 .98521 100.2 10.0
2018 12 10 06  03 06 51.980   -52 29 07.16  317318 .98521 100.2 10.0
2018 12 10 07  03 04 15.563   -52 18 14.17  321111 .98521 100.2 10.0
2018 12 10 08  03 01 44.041   -52 07 23.89  324872 .98521 100.1 10.1
2018 12 10 09  02 59 17.179   -51 56 36.69  328601 .98521 100.1 10.1
2018 12 10 10  02 56 54.757   -51 45 52.90  332298 .98520 100.0 10.1
2018 12 10 11  02 54 36.567   -51 35 12.79  335966 .98520 100.0 10.1
2018 12 10 12  02 52 22.413   -51 24 36.62  339602 .98520  99.9 10.2
2018 12 10 13  02 50 12.112   -51 14 04.57  343210 .98519  99.9 10.2
2018 12 10 14  02 48 05.492   -51 03 36.83  346788 .98519  99.8 10.2
2018 12 10 15  02 46 02.389   -50 53 13.54  350337 .98519  99.8 10.2
2018 12 10 16  02 44 02.648   -50 42 54.82  353857 .98518  99.7 10.2
2018 12 10 17  02 42 06.125   -50 32 40.77  357350 .98518  99.7 10.3
2018 12 10 18  02 40 12.683   -50 22 31.47  360815 .98518  99.6 10.3
2018 12 10 19  02 38 22.192   -50 12 26.98  364253 .98518  99.6 10.3
2018 12 10 20  02 36 34.529   -50 02 27.34  367663 .98517  99.5 10.3
2018 12 10 21  02 34 49.578   -49 52 32.60  371048 .98517  99.5 10.4
2018 12 10 22  02 33 07.230   -49 42 42.77  374406 .98516  99.4 10.4
2018 12 10 23  02 31 27.381   -49 32 57.86  377739 .98516  99.4 10.4
2018 12 11 00  02 29 49.931   -49 23 17.87  381046 .98516  99.3 10.4
2018 12 11 01  02 28 14.789   -49 13 42.80  384328 .98515  99.3 10.4
2018 12 11 02  02 26 41.863   -49 04 12.64  387585 .98515  99.2 10.5
2018 12 11 03  02 25 11.072   -48 54 47.36  390818 .98515  99.2 10.5
2018 12 11 04  02 23 42.333   -48 45 26.94  394026 .98514  99.1 10.5
2018 12 11 05  02 22 15.572   -48 36 11.34  397211 .98514  99.1 10.5
2018 12 11 06  02 20 50.715   -48 27 00.54  400372 .98513  99.0 10.5
2018 12 11 07  02 19 27.694   -48 17 54.49  403510 .98513  99.0 10.6
2018 12 11 08  02 18 06.444   -48 08 53.15  406625 .98513  98.9 10.6
2018 12 11 09  02 16 46.900   -47 59 56.48  409717 .98512  98.9 10.6
2018 12 11 10  02 15 29.005   -47 51 04.43  412786 .98512  98.8 10.6
2018 12 11 11  02 14 12.701   -47 42 16.94  415833 .98511  98.8 10.6
2018 12 11 12  02 12 57.934   -47 33 33.98  418859 .98511  98.7 10.7
2018 12 11 13  02 11 44.652   -47 24 55.49  421862 .98510  98.7 10.7
2018 12 11 14  02 10 32.805   -47 16 21.40  424844 .98510  98.6 10.7